Wind_Speed
12 10 7 4 4 4 6 6 6 4 4 2 2 4 3 0 1 2 3 3 3 2 2 1 3 3 3 4 4 5 7 8 10
16 14 12 9 8 8 7 7 6 7 7 5 1 3 4 3 2 1 1 2 3 4 4 2 2 3 5 5 6 6 10 10 10
23 19 16 14 12 11 10 9 7 8 9 7 2 1 2 2 2 1 1 2 2 5 5 6 5 6 7 7 7 9 10 9 9
27 25 21 18 17 15 13 13 10 9 10 11 5 3 3 2 2 2 2 2 3 5 6 8 8 7 8 9 9 9 9 7 8
31 30 26 23 22 20 17 16 13 12 12 13 11 4 3 3 1 1 1 3 3 4 5 6 6 8 9 9 8 7 7 7 7
37 34 32 28 26 24 21 20 18 15 15 15 14 7 4 4 2 1 1 3 4 4 6 7 7 8 8 7 6 5 5 6 6
43 38 36 35 30 27 24 24 22 18 18 18 16 12 7 7 5 4 2 2 4 5 6 6 7 7 6 5 4 3 4 5 5
47 43 40 40 35 31 29 29 25 21 22 20 20 15 11 9 9 6 6 4 4 4 4 5 5 5 4 2 2 1 2 4 5
47 47 42 42 41 33 33 35 31 26 25 23 22 18 15 13 12 10 9 8 6 6 6 6 5 5 5 3 2 2 3 4 5
46 49 41 43 45 42 37 39 35 30 28 27 24 21 18 16 15 13 12 11 9 8 8 7 7 6 5 5 4 5 5 6 6
50 48 40 38 44 46 44 38 46 34 32 30 28 24 22 19 18 17 15 13 12 10 9 9 8 7 8 7 8 8 8 8 8
42 47 46 31 39 52 46 40 40 38 36 33 32 28 24 23 21 20 18 16 14 13 11 9 8 8 8 8 8 8 8 8 8
28 44 48 39 35 35 50 49 39 41 38 36 34 32 28 25 24 23 21 19 17 15 13 11 10 9 9 8 7 8 8 8 8
22 30 47 47 30 17 48 45 56 42 44 39 37 34 32 29 27 25 25 23 20 18 16 14 13 12 11 10 8 8 8 8 8
21 21 29 44 50 16 27 51 53 49 39 42 38 36 35 33 30 28 28 26 24 22 19 17 15 14 13 12 10 9 9 9 9
18 19 22 33 53 28 18 13 31 51 47 38 44 39 40 38 35 32 31 29 27 25 22 19 17 16 15 13 12 11 11 11 10
18 16 20 25 43 45 42 22 13 34 45 44 37 46 44 44 39 36 32 30 30 28 25 22 20 19 17 15 13 12 13 13 12
20 19 16 23 25 56 39 34 27 17 38 44 43 45 51 44 43 38 34 31 30 29 27 25 23 22 19 17 15 14 15 14 14
21 20 20 18 18 32 56 40 31 26 35 34 44 46 47 48 45 41 36 32 30 30 29 28 25 24 22 20 18 17 18 17 16
20 21 21 21 18 22 34 51 49 34 22 17 37 45 36 45 43 44 38 36 31 30 30 28 27 27 25 24 21 20 20 19 18
Wind_Direction
226 228 224 208 236 224 242 272 274 271 269 243 163 119 121 133 236 214 194 202 189 183 154 91 67 56 44 52 64 84 99 99 96
232 227 226 219 228 252 257 253 258 263 270 264 170 125 139 169 203 243 192 180 174 173 157 142 104 89 86 86 89 99 98 94 91
239 232 223 227 221 241 254 255 248 256 262 266 233 153 143 172 161 179 189 149 162 142 140 128 112 105 102 100 104 104 100 91 81
233 236 229 222 229 229 244 257 248 244 253 260 246 193 174 195 204 175 154 149 146 130 124 124 120 119 116 113 117 109 97 89 72
228 232 231 227 226 230 233 246 248 243 241 251 254 207 209 206 187 132 145 129 127 122 122 123 121 124 119 122 120 107 94 78 61
231 227 229 228 226 228 230 239 246 249 239 244 250 235 225 235 200 199 124 109 126 133 126 126 124 122 124 124 106 87 68 55 42
233 226 226 229 226 228 227 237 239 244 246 242 244 237 218 239 233 221 199 155 132 129 128 130 131 130 135 131 113 79 40 27 20
233 228 224 227 226 227 227 232 235 238 245 243 239 235 228 222 239 235 228 204 167 153 149 151 150 155 162 156 129 78 20 358 355
233 231 227 223 227 229 228 234 231 234 241 243 240 230 229 228 232 230 233 228 205 190 188 190 187 194 201 205 239 290 305 315 333
234 229 228 225 224 227 224 239 229 229 238 242 243 235 224 227 234 234 233 232 228 217 207 212 214 220 234 245 258 275 290 303 315
232 229 233 226 231 228 231 233 238 229 232 238 241 237 231 220 230 238 234 236 233 230 223 226 230 240 249 257 268 275 285 292 301
236 233 233 228 227 225 224 224 237 231 230 232 238 238 234 227 219 232 238 236 237 235 237 232 234 242 254 262 271 280 283 289 297
240 233 233 228 220 213 223 228 225 226 230 232 235 237 237 232 227 221 230 237 237 237 234 236 236 239 247 254 266 276 280 285 290
249 234 236 228 224 229 217 224 231 234 228 229 235 236 238 236 231 229 224 227 234 237 236 235 237 241 243 250 260 272 280 282 285
262 248 240 240 232 217 205 226 234 230 224 232 233 235 238 237 234 230 231 226 226 232 236 239 240 243 246 251 253 266 276 279 282
272 263 264 251 234 220 235 212 222 220 223 224 231 235 235 236 235 231 229 231 230 230 231 236 241 246 250 254 256 259 269 276 280
276 276 266 271 251 229 236 245 252 213 210 217 221 236 237 234 232 233 230 228 232 233 233 234 239 245 250 252 255 260 264 271 277
284 281 274 269 268 243 237 241 251 245 211 213 218 223 235 240 237 234 234 235 233 233 236 237 238 241 246 250 253 256 262 266 273
289 280 276 270 266 265 257 242 249 252 201 212 214 225 229 236 240 238 235 235 234 234 234 236 238 242 244 248 251 254 260 265 269
298 289 280 277 267 261 252 253 257 240 204 213 214 219 226 226 236 237 235 235 232 234 235 235 236 239 242 246 248 251 257 262 266
Height
3190 3191 3193 3192 3193 3193 3193 3193 3193 3193 3193 3192 3193 3193 3193 3191 3191 3191 3190 3190 3190 3190 3191 3191 3190 3191 3191 3191 3190 3190 3190 3188 3188
3188 3189 3190 3191 3191 3192 3192 3192 3192 3192 3193 3192 3193 3194 3193 3192 3192 3191 3191 3191 3190 3190 3190 3191 3190 3191 3191 3191 3192 3192 3191 3190 3189
3186 3186 3187 3190 3190 3190 3191 3191 3191 3191 3192 3191 3193 3194 3193 3192 3192 3192 3192 3191 3191 3190 3189 3190 3191 3191 3192 3192 3193 3193 3191 3191 3190
3181 3183 3185 3186 3188 3187 3188 3189 3189 3190 3190 3190 3192 3194 3193 3193 3192 3192 3192 3192 3192 3191 3191 3191 3191 3192 3192 3192 3193 3193 3193 3193 3192
3174 3178 3181 3182 3184 3185 3186 3187 3188 3187 3188 3188 3190 3193 3193 3193 3192 3192 3192 3192 3192 3193 3193 3193 3193 3194 3193 3194 3195 3194 3194 3193 3193
3168 3172 3176 3178 3179 3181 3183 3184 3186 3186 3186 3186 3188 3191 3192 3192 3192 3193 3192 3192 3193 3194 3194 3194 3194 3194 3195 3196 3196 3196 3195 3195 3194
3161 3165 3169 3172 3175 3177 3179 3180 3182 3184 3183 3184 3185 3189 3190 3191 3191 3192 3192 3193 3193 3194 3194 3195 3195 3195 3196 3196 3196 3196 3197 3196 3196
3153 3157 3161 3166 3169 3171 3174 3175 3178 3180 3179 3180 3182 3186 3189 3189 3190 3191 3192 3193 3193 3193 3194 3195 3195 3196 3197 3197 3197 3197 3197 3196 3195
3146 3150 3153 3156 3163 3165 3166 3168 3172 3175 3176 3177 3178 3183 3186 3188 3189 3190 3191 3192 3193 3193 3194 3194 3195 3196 3197 3197 3197 3197 3196 3195 3194
3138 3142 3146 3150 3153 3158 3161 3161 3166 3170 3173 3174 3175 3179 3182 3185 3187 3188 3189 3191 3192 3193 3193 3194 3195 3196 3196 3197 3197 3197 3196 3195 3194
3130 3136 3138 3142 3145 3149 3154 3158 3162 3166 3168 3170 3171 3175 3179 3181 3184 3186 3187 3189 3190 3192 3192 3193 3194 3195 3195 3196 3196 3195 3195 3194 3193
3121 3129 3131 3133 3137 3140 3146 3153 3155 3160 3162 3165 3167 3171 3174 3177 3179 3183 3185 3187 3189 3190 3192 3192 3192 3193 3194 3195 3194 3195 3194 3194 3193
3116 3118 3123 3128 3129 3130 3139 3146 3148 3150 3156 3159 3161 3165 3169 3172 3174 3176 3181 3184 3185 3187 3189 3190 3191 3191 3192 3193 3193 3193 3193 3192 3192
3111 3111 3115 3120 3124 3124 3128 3135 3140 3144 3149 3154 3156 3160 3163 3167 3170 3173 3175 3179 3182 3184 3186 3187 3189 3189 3190 3191 3191 3191 3191 3190 3190
3107 3107 3107 3111 3117 3116 3119 3125 3130 3139 3145 3148 3150 3154 3157 3161 3164 3167 3170 3173 3176 3180 3183 3185 3186 3187 3187 3188 3188 3189 3189 3189 3189
3102 3100 3101 3102 3109 3110 3114 3118 3122 3134 3136 3139 3143 3146 3149 3153 3157 3161 3165 3169 3172 3175 3178 3181 3183 3184 3185 3186 3187 3187 3187 3187 3187
3096 3096 3096 3095 3102 3106 3110 3115 3120 3123 3124 3129 3134 3138 3142 3143 3150 3155 3160 3164 3167 3171 3173 3176 3179 3181 3182 3183 3184 3185 3185 3185 3185
3093 3093 3091 3095 3092 3100 3104 3109 3112 3116 3116 3119 3125 3128 3131 3142 3143 3149 3155 3159 3162 3165 3169 3171 3174 3176 3178 3179 3180 3181 3182 3182 3182
3090 3090 3090 3090 3089 3091 3096 3104 3107 3111 3109 3114 3118 3123 3126 3134 3136 3142 3148 3152 3156 3159 3162 3165 3168 3170 3173 3174 3176 3177 3178 3178 3178
3087 3086 3085 3085 3084 3086 3088 3097 3103 3105 3104 3108 3112 3114 3119 3123 3129 3133 3140 3144 3150 3154 3156 3159 3162 3164 3167 3169 3171 3172 3173 3174 3174